Location: *
(37.5724°S, 58.0067°E)
Time: 03:29:00
(UTC+00:00)

Cosmos 2026 Rocket - Pass Details

Date: 21 January 2021
Orbit: 940 x 1000 km, 82.9° (Epoch: 03 March)

Event Time Altitude Azimuth Distance (km) Brightness Sun altitude
Rises 16:02:51 0° 209° (SSW) 3,651 8.2 -6.9°
Reaches altitude 10° 16:06:45 10° 233° (SW) 2,688 8.1 -7.5°
Maximum altitude 16:09:34 14° 261° (W) 2,421 7.3 -8.0°
Drops below altitude 10° 16:12:23 10° 289° (WNW) 2,666 6.9 -8.5°
Sets 16:16:15 0° 313° (NW) 3,598 7.1 -9.1°
